Date String (YYYY-MM-DD hh:mm:ss) UTC,Instrument flags,Ambient pressure (hPa),Sample flow (lpm),Bypass flow (lpm),Sample temperature (°C),Ambient temperature (°C),ASC tube jacket temperature (°C),LED temperature (°C),Box temperature (°C),Sample RH (%),Span deviation,Mass concentration (μg/m³),Mass concentration (μg/m³),Mass concentration (μg/m³)
DateTimeUTC,F1_M11,P_M11,Q1_M11,Q2_M11,T1_M11,T2_M11,T3_M11,T4_M11,T5_M11,U1_M11,ZSPAN_M11,X0_M11,X2_M11,X1_M11
2021-12-06 14:00:00,,0828.7,5.01,0.00,22.3,21.5,00.0,31.3,24.0,06.3,0000.0,0005.46,0002.09,0001.49
2021-12-06 14:01:00,,0829.0,5.00,0.00,22.3,21.5,00.0,31.3,23.9,06.3,0000.0,0005.76,0002.16,0001.49
2021-12-06 14:02:00,,0828.9,5.00,0.00,22.3,21.4,00.0,31.3,23.9,06.4,0000.0,0006.19,0002.16,0001.49
2021-12-06 14:03:00,,0828.8,4.99,0.00,22.3,21.5,00.0,31.3,23.9,06.4,0000.0,0006.70,0002.20,0001.50
2021-12-06 14:04:00,,0829.0,5.00,0.00,22.3,22.2,00.0,31.3,24.1,06.3,0000.0,0006.72,0002.21,0001.50
2021-12-06 14:05:00,,0828.9,5.00,0.00,22.5,23.0,00.0,31.4,24.3,06.3,0000.0,0006.62,0002.19,0001.50
2021-12-06 14:06:00,,0829.0,5.00,0.00,22.6,23.1,00.0,31.4,24.5,06.3,0000.0,0006.53,0002.18,0001.51
2021-12-06 14:07:00,,0829.0,5.00,0.00,22.6,22.9,00.0,31.4,24.5,06.3,0000.0,0005.65,0002.18,0001.51
2021-12-06 14:08:00,,0829.0,5.00,0.00,22.6,22.7,00.0,31.4,24.4,06.3,0000.0,0005.37,0002.17,0001.51
2021-12-06 14:09:00,,0828.9,5.00,0.00,22.6,22.4,00.0,31.4,24.3,06.3,0000.0,0004.66,0002.15,0001.50
2021-12-06 14:10:00,,0828.9,5.01,0.00,22.6,22.3,00.0,31.5,24.3,06.3,0000.0,0004.64,0002.14,0001.50
2021-12-06 14:11:00,,0829.0,4.99,0.00,22.5,22.1,00.0,31.5,24.2,06.3,0000.0,0004.22,0002.09,0001.50
2021-12-06 14:12:00,,0828.9,5.01,0.00,22.5,22.0,00.0,31.4,24.1,06.4,0000.0,0003.89,0002.02,0001.51
2021-12-06 14:13:00,,0828.9,4.99,0.00,22.5,21.9,00.0,31.4,24.1,06.4,0000.0,0003.27,0001.96,0001.51
2021-12-06 14:14:00,,0828.9,5.01,0.00,22.4,21.8,00.0,31.4,24.1,06.4,0000.0,0002.96,0001.92,0001.51
2021-12-06 14:15:00,,0828.9,5.00,0.00,22.4,21.7,00.0,31.4,24.0,06.4,0000.0,0003.17,0001.94,0001.52
2021-12-06 14:16:00,,0829.0,4.99,0.00,22.4,21.6,00.0,31.4,24.0,06.4,0000.0,0003.36,0001.98,0001.53
2021-12-06 14:17:00,,0828.9,5.00,0.00,22.3,21.6,00.0,31.4,23.9,06.4,0000.0,0003.66,0002.04,0001.55
2021-12-06 14:18:00,,0828.9,5.01,0.00,22.3,21.5,00.0,31.4,23.9,06.4,0000.0,0003.71,0002.07,0001.55
2021-12-06 14:19:00,,0829.0,4.98,0.00,22.3,21.4,00.0,31.4,23.9,06.4,0000.0,0004.17,0002.07,0001.56
2021-12-06 14:20:00,,0829.3,5.01,0.00,22.3,21.5,00.0,31.4,23.9,06.4,0000.0,0004.73,0002.09,0001.57
2021-12-06 14:21:00,,0829.3,5.00,0.00,22.3,22.2,00.0,31.4,24.1,06.4,0000.0,0004.77,0002.12,0001.58
2021-12-06 14:22:00,,0829.2,5.00,0.00,22.5,22.9,00.0,31.4,24.3,06.4,0000.0,0004.82,0002.15,0001.59
2021-12-06 14:23:00,,0829.4,4.99,0.00,22.6,23.2,00.0,31.5,24.5,06.3,0000.0,0005.72,0002.19,0001.59
2021-12-06 14:24:00,,0829.4,5.01,0.00,22.6,22.9,00.0,31.5,24.5,06.3,0000.0,0007.36,0002.24,0001.61
2021-12-06 14:25:00,,0829.3,5.00,0.00,22.6,22.7,00.0,31.5,24.5,06.3,0000.0,0007.09,0002.22,0001.62
2021-12-06 14:26:00,,0828.8,4.99,0.00,22.6,22.5,00.0,31.5,24.4,06.3,0000.0,0006.72,0002.17,0001.64
2021-12-06 14:27:00,,0828.9,5.00,0.00,22.6,22.3,00.0,31.5,24.3,06.3,0000.0,0006.57,0002.13,0001.63
2021-12-06 14:28:00,,0829.0,4.99,0.00,22.6,22.2,00.0,31.5,24.3,06.3,0000.0,0006.29,0002.07,0001.61
2021-12-06 14:29:00,,0828.7,5.01,0.00,22.5,22.0,00.0,31.5,24.2,06.3,0000.0,0006.25,0002.05,0001.61
2021-12-06 14:30:00,,0829.3,5.00,0.00,22.5,21.9,00.0,31.5,24.2,06.3,0000.0,0005.76,0002.07,0001.61
2021-12-06 14:31:00,,0829.0,4.99,0.00,22.5,21.8,00.0,31.5,24.1,06.3,0000.0,0005.22,0002.05,0001.60
2021-12-06 14:32:00,,0829.1,5.00,0.00,22.5,21.8,00.0,31.5,24.1,06.3,0000.0,0005.46,0002.04,0001.60
2021-12-06 14:33:00,,0829.0,5.00,0.00,22.4,21.7,00.0,31.4,24.1,06.3,0000.0,0008.01,0002.07,0001.60
2021-12-06 14:34:00,,0828.9,4.98,0.00,22.4,21.6,00.0,31.4,24.0,06.3,0000.0,0008.76,0002.07,0001.60
2021-12-06 14:35:00,,0828.9,5.01,0.00,22.4,21.5,00.0,31.4,24.0,06.3,0000.0,0007.93,0002.04,0001.58
2021-12-06 14:36:00,,0829.0,5.00,0.00,22.3,21.5,00.0,31.4,24.0,06.3,0000.0,0008.30,0002.07,0001.58
2021-12-06 14:37:00,,0829.3,5.00,0.00,22.3,21.5,00.0,31.4,24.0,06.3,0000.0,0008.44,0002.12,0001.57
2021-12-06 14:38:00,,0828.9,5.00,0.00,22.3,21.5,00.0,31.4,24.0,06.3,0000.0,0008.46,0002.14,0001.58
2021-12-06 14:39:00,,0828.9,5.00,0.00,22.4,22.1,00.0,31.4,24.1,06.3,0000.0,0008.83,0002.18,0001.58
2021-12-06 14:40:00,,0829.0,5.00,0.00,22.5,23.0,00.0,31.4,24.3,06.3,0000.0,0009.00,0002.18,0001.57
2021-12-06 14:41:00,,0829.1,4.99,0.00,22.6,23.3,00.0,31.5,24.5,06.2,0000.0,0009.06,0002.17,0001.57
2021-12-06 14:42:00,,0829.0,5.01,0.00,22.7,23.1,00.0,31.5,24.6,06.2,0000.0,0009.04,0002.15,0001.58
2021-12-06 14:43:00,,0829.1,5.00,0.00,22.7,22.9,00.0,31.5,24.5,06.2,0000.0,0008.85,0002.13,0001.59
2021-12-06 14:44:00,,0829.1,5.00,0.00,22.7,22.6,00.0,31.5,24.4,06.3,0000.0,0006.95,0002.11,0001.60
2021-12-06 14:45:00,,0829.0,4.99,0.00,22.6,22.4,00.0,31.5,24.4,06.4,0000.0,0005.24,0002.12,0001.63
2021-12-06 14:46:00,,0829.0,5.02,0.00,22.6,22.3,00.0,31.5,24.3,06.4,0000.0,0005.22,0002.22,0001.67
2021-12-06 14:47:00,,0829.0,5.00,0.00,22.6,22.1,00.0,31.5,24.3,06.4,0000.0,0004.75,0002.27,0001.69
2021-12-06 14:48:00,,0829.0,4.99,0.00,22.6,22.0,00.0,31.5,24.3,06.4,0000.0,0004.85,0002.35,0001.71
2021-12-06 14:49:00,,0829.2,5.01,0.00,22.5,21.9,00.0,31.5,24.2,06.5,0000.0,0004.86,0002.37,0001.72
2021-12-06 14:50:00,,0829.2,4.99,0.00,22.5,21.8,00.0,31.5,24.2,06.5,0000.0,0004.47,0002.43,0001.74
2021-12-06 14:51:00,,0829.0,5.00,0.00,22.5,21.8,00.0,31.5,24.2,06.5,0000.0,0004.28,0002.44,0001.75
2021-12-06 14:52:00,,0828.9,4.99,0.00,22.5,21.7,00.0,31.5,24.1,06.5,0000.0,0004.38,0002.47,0001.75
2021-12-06 14:53:00,,0829.1,5.01,0.00,22.5,21.7,00.0,31.5,24.1,06.5,0000.0,0004.93,0002.59,0001.75
2021-12-06 14:54:00,,0829.0,5.00,0.00,22.4,21.6,00.0,31.4,24.1,06.5,0000.0,0006.09,0002.70,0001.75
2021-12-06 14:55:00,,0828.9,5.01,0.00,22.4,21.6,00.0,31.4,24.1,06.6,0000.0,0006.97,0002.81,0001.75
2021-12-06 14:56:00,,0829.0,4.99,0.00,22.4,21.6,00.0,31.4,24.1,06.6,0000.0,0007.63,0002.89,0001.74
2021-12-06 14:57:00,,0829.1,5.01,0.00,22.4,21.6,00.0,31.4,24.1,06.6,0000.0,0007.89,0002.89,0001.72
2021-12-06 14:58:00,,0829.0,4.98,0.00,22.5,22.1,00.0,31.4,24.2,06.5,0000.0,0008.14,0002.87,0001.70
2021-12-06 14:59:00,,0829.0,5.00,0.00,22.6,23.0,00.0,31.5,24.4,06.5,0000.0,0008.20,0002.86,0001.69
